,,,PA_Meas_PMT16A,,PR_Meas_QMR101_102,,RH_Meas_QMH101,,SR_Meas_QMS101,,TA_Meas_QMH101,,GenWind,,GenWind,
date,time,status,PA,status,PR,status,RH,status,SR,status,TA,status,DirAvg,status,SpdAvg,
2012-01-05, 00:00:04,VALID,1005.28,VALID,0,VALID,85.6342,VALID,0,VALID,26.3713,VALID,7,VALID,1.71953,
2012-01-05, 00:01:04,VALID,1005.26,VALID,0,VALID,85.5503,VALID,0,VALID,26.3323,VALID,5,VALID,2.07227,
2012-01-05, 00:02:04,VALID,1005.26,VALID,0,VALID,85.7868,VALID,0,VALID,26.3518,VALID,9,VALID,0.934375,
2012-01-05, 00:03:04,VALID,1005.26,VALID,0,VALID,85.7639,VALID,0,VALID,26.3538,VALID,13,VALID,1.15391,
2012-01-05, 00:04:04,VALID,1005.23,VALID,0,VALID,85.7715,VALID,0,VALID,26.3538,VALID,42,VALID,1.84102,
2012-01-05, 00:05:04,VALID,1005.21,VALID,0,VALID,85.8249,VALID,0,VALID,26.3323,VALID,12,VALID,1.72109,
2012-01-05, 00:06:04,VALID,1005.21,VALID,0,VALID,85.9622,VALID,0,VALID,26.3323,VALID,28,VALID,1.01563,
2012-01-05, 00:07:04,VALID,1005.19,VALID,0,VALID,85.9317,VALID,0,VALID,26.3128,VALID,17,VALID,1.22852,
2012-01-05, 00:08:04,VALID,1005.16,VALID,0,VALID,85.6952,VALID,0,VALID,26.3343,VALID,19,VALID,1.86367,
2012-01-05, 00:09:04,VALID,1005.12,VALID,0,VALID,85.5503,VALID,0,VALID,26.3323,VALID,23,VALID,1.66094,
2012-01-05, 00:10:04,VALID,1005.11,VALID,0,VALID,85.6113,VALID,0,VALID,26.3518,VALID,7,VALID,1.80352,
2012-01-05, 00:11:04,VALID,1005.09,VALID,0,VALID,85.535,VALID,0,VALID,26.3518,VALID,23,VALID,1.87656,
2012-01-05, 00:12:04,VALID,1005.07,VALID,0,VALID,85.3367,VALID,0,VALID,26.3323,VALID,21,VALID,2.14414,
2012-01-05, 00:13:04,VALID,1005.04,VALID,0,VALID,85.1841,VALID,0,VALID,26.3713,VALID,21,VALID,1.95703,
2012-01-05, 00:14:04,VALID,1005.03,VALID,0,VALID,85.3061,VALID,0,VALID,26.3693,VALID,14,VALID,1.15117,
2012-01-05, 00:15:04,VALID,1004.99,VALID,0,VALID,85.3214,VALID,0,VALID,26.3713,VALID,12,VALID,2.02773,
2012-01-05, 00:16:04,VALID,1004.99,VALID,0,VALID,85.5884,VALID,0,VALID,26.3323,VALID,13,VALID,1.12891,
2012-01-05, 00:17:04,VALID,1004.94,VALID,0,VALID,85.535,VALID,0,VALID,26.3323,VALID,33,VALID,1.73984,
2012-01-05, 00:18:04,VALID,1004.95,VALID,0,VALID,85.5198,VALID,0,VALID,26.2933,VALID,6,VALID,1.96992,
2012-01-05, 00:19:04,VALID,1004.93,VALID,0,VALID,85.3595,VALID,0,VALID,26.2933,VALID,12,VALID,1.85195,
2012-01-05, 00:20:04,VALID,1004.9,VALID,0,VALID,85.2299,VALID,0,VALID,26.3518,VALID,22,VALID,2.61133,
2012-01-05, 00:21:04,VALID,1004.89,VALID,0,VALID,84.8866,VALID,0,VALID,26.3498,VALID,12,VALID,2.02422,
2012-01-05, 00:22:04,VALID,1004.93,VALID,0,VALID,84.5204,VALID,0,VALID,26.4102,VALID,343,VALID,3.2293,
2012-01-05, 00:23:04,VALID,1004.91,VALID,0,VALID,84.1466,VALID,0,VALID,26.4082,VALID,356,VALID,2.22461,
2012-01-05, 00:24:04,VALID,1004.91,VALID,0,VALID,84.116,VALID,0,VALID,26.4881,VALID,14,VALID,1.8207,
2012-01-05, 00:25:04,VALID,1004.87,VALID,0,VALID,84.383,VALID,0,VALID,26.4881,VALID,4,VALID,1.86875,
2012-01-05, 00:26:04,VALID,1004.87,VALID,0,VALID,84.4288,VALID,0,VALID,26.4687,VALID,8,VALID,1.74219,
2012-01-05, 00:27:04,VALID,1004.85,VALID,0,VALID,84.7111,VALID,0,VALID,26.4297,VALID,18,VALID,1.29062,
2012-01-05, 00:28:04,VALID,1004.84,VALID,0,VALID,84.9323,VALID,0,VALID,26.4102,VALID,35,VALID,0.728906,
2012-01-05, 00:29:04,VALID,1004.81,VALID,0,VALID,85.0849,VALID,0,VALID,26.3713,VALID,10,VALID,1.12031,
2012-01-05, 00:30:04,VALID,1004.81,VALID,0,VALID,85.2985,VALID,0,VALID,26.3323,VALID,5,VALID,1.98008,
2012-01-05, 00:31:04,VALID,1004.79,VALID,0,VALID,85.0696,VALID,0,VALID,26.3733,VALID,16,VALID,2.60313,
2012-01-05, 00:32:04,VALID,1004.8,VALID,0,VALID,85.1993,VALID,0,VALID,26.3518,VALID,36,VALID,0.957422,
2012-01-05, 00:33:04,VALID,1004.78,VALID,0,VALID,85.4587,VALID,0,VALID,26.3323,VALID,20,VALID,1.2918,
2012-01-05, 00:34:04,VALID,1004.74,VALID,0,VALID,85.5274,VALID,0,VALID,26.2739,VALID,13,VALID,2.08359,
2012-01-05, 00:35:04,VALID,1004.72,VALID,0,VALID,85.7181,VALID,0,VALID,26.2759,VALID,355,VALID,1.92344,
2012-01-05, 00:36:04,VALID,1004.74,VALID,0,VALID,85.8707,VALID,0,VALID,26.2349,VALID,27,VALID,1.74766,
2012-01-05, 00:37:04,VALID,1004.73,VALID,0,VALID,85.8936,VALID,0,VALID,26.1959,VALID,14,VALID,2.30352,
2012-01-05, 00:38:04,VALID,1004.69,VALID,0,VALID,85.9012,VALID,0,VALID,26.2174,VALID,17,VALID,1.75859,
2012-01-05, 00:39:04,VALID,1004.71,VALID,0,VALID,85.7105,VALID,0,VALID,26.2349,VALID,9,VALID,2.72031,
2012-01-05, 00:40:04,VALID,1004.68,VALID,0,VALID,85.6189,VALID,0,VALID,26.2544,VALID,5,VALID,1.69023,
2012-01-05, 00:41:04,VALID,1004.69,VALID,0,VALID,85.6952,VALID,0,VALID,26.2739,VALID,13,VALID,1.33008,
2012-01-05, 00:42:04,VALID,1004.7,VALID,0,VALID,85.7486,VALID,0,VALID,26.2544,VALID,16,VALID,1.74336,
2012-01-05, 00:43:04,VALID,1004.69,VALID,0,VALID,85.8859,VALID,0,VALID,26.2349,VALID,21,VALID,1.63398,
2012-01-05, 00:44:04,VALID,1004.67,VALID,0,VALID,85.7486,VALID,0,VALID,26.2564,VALID,14,VALID,2.17109,
2012-01-05, 00:45:04,VALID,1004.67,VALID,0,VALID,85.8249,VALID,0,VALID,26.2564,VALID,13,VALID,1.57305,
2012-01-05, 00:46:04,VALID,1004.67,VALID,0,VALID,85.6418,VALID,0,VALID,26.2349,VALID,358,VALID,1.67188,
2012-01-05, 00:47:04,VALID,1004.67,VALID,0,VALID,85.7028,VALID,0,VALID,26.2349,VALID,31,VALID,1.17813,
2012-01-05, 00:48:04,VALID,1004.6,VALID,0,VALID,85.4206,VALID,0,VALID,26.2544,VALID,31,VALID,2.18398,
2012-01-05, 00:49:04,VALID,1004.61,VALID,0,VALID,85.4129,VALID,0,VALID,26.2933,VALID,7,VALID,1.2875,
2012-01-05, 00:50:04,VALID,1004.6,VALID,0,VALID,85.3748,VALID,0,VALID,26.2933,VALID,10,VALID,1.91367,
2012-01-05, 00:51:04,VALID,1004.59,VALID,0,VALID,85.3061,VALID,0,VALID,26.2739,VALID,8,VALID,2.17656,
2012-01-05, 00:52:04,VALID,1004.58,VALID,0,VALID,85.3901,VALID,0,VALID,26.2933,VALID,24,VALID,1.30977,
2012-01-05, 00:53:04,VALID,1004.57,VALID,0,VALID,85.535,VALID,0,VALID,26.2739,VALID,13,VALID,1.74453,
2012-01-05, 00:54:04,VALID,1004.55,VALID,0,VALID,85.5274,VALID,0,VALID,26.2544,VALID,27,VALID,1.31797,
2012-01-05, 00:55:04,VALID,1004.57,VALID,0,VALID,85.7562,VALID,0,VALID,26.2349,VALID,17,VALID,1.09961,
2012-01-05, 00:56:04,VALID,1004.45,VALID,0,VALID,85.5732,VALID,0,VALID,26.2349,VALID,357,VALID,1.775,
2012-01-05, 00:57:04,VALID,1004.49,VALID,0,VALID,85.7257,VALID,0,VALID,26.2349,VALID,17,VALID,1.66094,
2012-01-05, 00:58:04,VALID,1004.48,VALID,0,VALID,85.7791,VALID,0,VALID,26.2154,VALID,22,VALID,1.28125,
2012-01-05, 00:59:04,VALID,1004.45,VALID,0,VALID,85.8325,VALID,0,VALID,26.2154,VALID,24,VALID,1.21523,
2012-01-05, 01:00:04,VALID,1004.47,VALID,0,VALID,85.8936,VALID,0,VALID,26.1959,VALID,20,VALID,1.49844,
2012-01-05, 01:01:04,VALID,1004.4,VALID,0,VALID,85.5732,VALID,0,VALID,26.1765,VALID,15,VALID,1.43555,
2012-01-05, 01:02:04,VALID,1004.42,VALID,0,VALID,85.535,VALID,0,VALID,26.2369,VALID,19,VALID,1.46211,
2012-01-05, 01:03:04,VALID,1004.36,VALID,0,VALID,85.0391,VALID,0,VALID,26.2349,VALID,18,VALID,1.76719,
2012-01-05, 01:04:04,VALID,1004.35,VALID,0,VALID,85.2833,VALID,0,VALID,26.2739,VALID,12,VALID,1.61406,
2012-01-05, 01:05:04,VALID,1004.31,VALID,0,VALID,85.2909,VALID,0,VALID,26.2544,VALID,355,VALID,1.75742,
2012-01-05, 01:06:04,VALID,1004.28,VALID,0,VALID,85.5045,VALID,0,VALID,26.2154,VALID,18,VALID,1.40664,
2012-01-05, 01:07:04,VALID,1004.25,VALID,0,VALID,85.4816,VALID,0,VALID,26.1959,VALID,15,VALID,2.54844,
2012-01-05, 01:08:04,VALID,1004.23,VALID,0,VALID,85.5732,VALID,0,VALID,26.1959,VALID,12,VALID,1.64727,
2012-01-05, 01:09:04,VALID,1004.24,VALID,0,VALID,85.7257,VALID,0,VALID,26.1765,VALID,1,VALID,1.15898,
2012-01-05, 01:10:04,VALID,1004.25,VALID,0,VALID,85.7868,VALID,0,VALID,26.1375,VALID,15,VALID,2.08867,
2012-01-05, 01:11:04,VALID,1004.22,VALID,0,VALID,85.4587,VALID,0,VALID,26.1784,VALID,23,VALID,2.52773,
2012-01-05, 01:12:04,VALID,1004.2,VALID,0,VALID,85.1688,VALID,0,VALID,26.2154,VALID,20,VALID,2.15352,
2012-01-05, 01:13:04,VALID,1004.21,VALID,0,VALID,85.2222,VALID,0,VALID,26.2349,VALID,5,VALID,1.73906,
2012-01-05, 01:14:04,VALID,1004.2,VALID,0,VALID,85.3367,VALID,0,VALID,26.2154,VALID,13,VALID,1.08555,
2012-01-05, 01:15:04,VALID,1004.21,VALID,0,VALID,85.4129,VALID,0,VALID,26.1959,VALID,359,VALID,1.4875,
2012-01-05, 01:16:04,VALID,1004.2,VALID,0,VALID,85.4969,VALID,0,VALID,26.1959,VALID,15,VALID,1.96211,
2012-01-05, 01:17:04,VALID,1004.22,VALID,0,VALID,85.5121,VALID,0,VALID,26.1765,VALID,14,VALID,1.19336,
2012-01-05, 01:18:04,VALID,1004.2,VALID,0,VALID,85.6037,VALID,0,VALID,26.159,VALID,10,VALID,1.44609,
2012-01-05, 01:19:04,VALID,1004.18,VALID,0,VALID,85.6342,VALID,0,VALID,26.1375,VALID,4,VALID,1.59687,
2012-01-05, 01:20:04,VALID,1004.2,VALID,0,VALID,85.6342,VALID,0,VALID,26.157,VALID,23,VALID,1.70938,
2012-01-05, 01:21:04,VALID,1004.18,VALID,0,VALID,85.5808,VALID,0,VALID,26.1375,VALID,28,VALID,1.48633,
2012-01-05, 01:22:04,VALID,1004.19,VALID,0,VALID,85.0773,VALID,0,VALID,26.1959,VALID,11,VALID,2.65313,
2012-01-05, 01:23:04,VALID,1004.15,VALID,0,VALID,84.8255,VALID,0,VALID,26.2564,VALID,23,VALID,1.77891,
2012-01-05, 01:24:04,VALID,1004.15,VALID,0,VALID,84.8637,VALID,0,VALID,26.2759,VALID,8,VALID,2.13906,
2012-01-05, 01:25:04,VALID,1004.17,VALID,0,VALID,84.8713,VALID,0,VALID,26.2154,VALID,9,VALID,1.62578,
2012-01-05, 01:26:04,VALID,1004.17,VALID,0,VALID,84.6958,VALID,0,VALID,26.2564,VALID,359,VALID,2.21836,
2012-01-05, 01:27:04,VALID,1004.18,VALID,0,VALID,84.6424,VALID,0,VALID,26.2953,VALID,19,VALID,2.34922,
2012-01-05, 01:28:04,VALID,1004.21,VALID,0,VALID,84.6958,VALID,0,VALID,26.2739,VALID,17,VALID,1.33438,
2012-01-05, 01:29:04,VALID,1004.2,VALID,0,VALID,84.734,VALID,0,VALID,26.2759,VALID,22,VALID,1.6918,
2012-01-05, 01:30:04,VALID,1004.23,VALID,0,VALID,84.6501,VALID,0,VALID,26.2739,VALID,46,VALID,1.19531,
2012-01-05, 01:31:04,VALID,1004.22,VALID,0,VALID,84.6653,VALID,0,VALID,26.2544,VALID,9,VALID,1.69297,
2012-01-05, 01:32:04,VALID,1004.2,VALID,0,VALID,84.6958,VALID,0,VALID,26.2544,VALID,16,VALID,2.11875,
2012-01-05, 01:33:04,VALID,1004.21,VALID,0,VALID,84.7416,VALID,0,VALID,26.2544,VALID,37,VALID,1.84531,
2012-01-05, 01:34:04,VALID,1004.21,VALID,0,VALID,84.9934,VALID,0,VALID,26.2349,VALID,15,VALID,1.54766,
2012-01-05, 01:35:04,VALID,1004.17,VALID,0,VALID,84.6348,VALID,0,VALID,26.2134,VALID,22,VALID,3.15391,
2012-01-05, 01:36:04,VALID,1004.17,VALID,0,VALID,84.5509,VALID,0,VALID,26.3148,VALID,27,VALID,1.40742,
2012-01-05, 01:37:04,VALID,1004.17,VALID,0,VALID,84.5509,VALID,0,VALID,26.2739,VALID,4,VALID,1.65859,
2012-01-05, 01:38:04,VALID,1004.11,VALID,0,VALID,84.5127,VALID,0,VALID,26.2739,VALID,11,VALID,1.53945,
2012-01-05, 01:39:04,VALID,1004.1,VALID,0,VALID,84.3296,VALID,0,VALID,26.2739,VALID,16,VALID,2.55078,
2012-01-05, 01:40:04,VALID,1004.11,VALID,0,VALID,84.3602,VALID,0,VALID,26.2933,VALID,19,VALID,1.12109,
2012-01-05, 01:41:04,VALID,1004.14,VALID,0,VALID,84.2457,VALID,0,VALID,26.2933,VALID,25,VALID,1.78867,
2012-01-05, 01:42:04,VALID,1004.1,VALID,0,VALID,84.322,VALID,0,VALID,26.3148,VALID,23,VALID,1.72891,
2012-01-05, 01:43:04,VALID,1004.1,VALID,0,VALID,84.1771,VALID,0,VALID,26.2739,VALID,35,VALID,1.61523,
2012-01-05, 01:44:04,VALID,1004.06,VALID,0,VALID,83.6659,VALID,0,VALID,26.3148,VALID,10,VALID,3.41016,
2012-01-05, 01:45:04,VALID,1004.09,VALID,0,VALID,83.7041,VALID,0,VALID,26.3518,VALID,46,VALID,1.38437,
2012-01-05, 01:46:04,VALID,1004.09,VALID,0,VALID,83.4752,VALID,0,VALID,26.3733,VALID,41,VALID,0.746875,
2012-01-05, 01:47:04,VALID,1004.13,VALID,0,VALID,83.4676,VALID,0,VALID,26.3518,VALID,12,VALID,1.45195,
2012-01-05, 01:48:04,VALID,1004.12,VALID,0,VALID,83.46,VALID,0,VALID,26.3323,VALID,36,VALID,1.8832,
2012-01-05, 01:49:04,VALID,1004.13,VALID,0,VALID,82.9946,VALID,0,VALID,26.3538,VALID,21,VALID,3.05,
2012-01-05, 01:50:04,VALID,1004.11,VALID,0,VALID,82.7962,VALID,0,VALID,26.3907,VALID,15,VALID,2.37969,
2012-01-05, 01:51:04,VALID,1004.14,VALID,0,VALID,82.7047,VALID,0,VALID,26.4102,VALID,27,VALID,1.6,
2012-01-05, 01:52:04,VALID,1004.11,VALID,0,VALID,82.5979,VALID,0,VALID,26.4102,VALID,21,VALID,2.51016,
2012-01-05, 01:53:04,VALID,1004.11,VALID,0,VALID,82.5826,VALID,0,VALID,26.4317,VALID,26,VALID,1.32734,
2012-01-05, 01:54:04,VALID,1004.12,VALID,0,VALID,82.5216,VALID,0,VALID,26.4297,VALID,6,VALID,1.73906,
2012-01-05, 01:55:04,VALID,1004.11,VALID,0,VALID,82.6513,VALID,0,VALID,26.4317,VALID,15,VALID,1.8875,
2012-01-05, 01:56:04,VALID,1004.11,VALID,0,VALID,82.5521,VALID,0,VALID,26.4122,VALID,30,VALID,2.27266,
2012-01-05, 01:57:04,VALID,1004.05,VALID,0,VALID,82.1783,VALID,0,VALID,26.4102,VALID,16,VALID,1.94141,
2012-01-05, 01:58:04,VALID,1004.12,VALID,0,VALID,82.2088,VALID,0,VALID,26.4512,VALID,15,VALID,3.18477,
2012-01-05, 01:59:04,VALID,1004.05,VALID,0,VALID,82.0486,VALID,0,VALID,26.4492,VALID,353,VALID,1.81211,
2012-01-05, 02:00:04,VALID,1004.09,VALID,0,VALID,81.7511,VALID,0,VALID,26.4687,VALID,10,VALID,1.91992,
2012-01-05, 02:01:04,VALID,1004.1,VALID,0,VALID,81.896,VALID,0,VALID,26.4687,VALID,26,VALID,1.21289,
2012-01-05, 02:02:04,VALID,1004.11,VALID,0,VALID,81.8503,VALID,0,VALID,26.4277,VALID,19,VALID,2.22813,
2012-01-05, 02:03:04,VALID,1004.09,VALID,0,VALID,81.5298,VALID,0,VALID,26.4472,VALID,14,VALID,1.69609,
2012-01-05, 02:04:04,VALID,1004.07,VALID,0,VALID,81.7511,VALID,0,VALID,26.4707,VALID,16,VALID,1.28789,
2012-01-05, 02:05:04,VALID,1004.07,VALID,0,VALID,81.7435,VALID,0,VALID,26.4297,VALID,10,VALID,1.8918,
2012-01-05, 02:06:04,VALID,1004.04,VALID,0,VALID,81.5375,VALID,0,VALID,26.4512,VALID,348,VALID,2.08594,
2012-01-05, 02:07:04,VALID,1004.05,VALID,0,VALID,81.5451,VALID,0,VALID,26.4687,VALID,20,VALID,2.43359,
2012-01-05, 02:08:04,VALID,1004.06,VALID,0,VALID,81.568,VALID,0,VALID,26.4687,VALID,356,VALID,2.41445,
2012-01-05, 02:09:04,VALID,1004.03,VALID,0,VALID,81.2399,VALID,0,VALID,26.4881,VALID,19,VALID,2.81133,
2012-01-05, 02:10:04,VALID,1004.02,VALID,0,VALID,81.362,VALID,0,VALID,26.4472,VALID,12,VALID,1.89492,
2012-01-05, 02:11:04,VALID,1004.02,VALID,0,VALID,81.4536,VALID,0,VALID,26.4687,VALID,16,VALID,1.46016,
2012-01-05, 02:12:04,VALID,1003.97,VALID,0,VALID,80.9806,VALID,0,VALID,26.4687,VALID,9,VALID,3.27773,
2012-01-05, 02:13:04,VALID,1003.98,VALID,0,VALID,80.8432,VALID,0,VALID,26.5076,VALID,11,VALID,2.27852,
2012-01-05, 02:14:04,VALID,1003.98,VALID,0,VALID,80.6449,VALID,0,VALID,26.5466,VALID,28,VALID,1.58945,
2012-01-05, 02:15:04,VALID,1003.94,VALID,0,VALID,80.5686,VALID,0,VALID,26.5661,VALID,72,VALID,1.52891,
2012-01-05, 02:16:04,VALID,1003.96,VALID,0,VALID,81.0187,VALID,0,VALID,26.5466,VALID,9,VALID,1.79297,
2012-01-05, 02:17:04,VALID,1003.91,VALID,0,VALID,80.9272,VALID,0,VALID,26.5681,VALID,21,VALID,1.92695,
2012-01-05, 02:18:04,VALID,1003.9,VALID,0,VALID,81.156,VALID,0,VALID,26.5466,VALID,38,VALID,1.53242,
2012-01-05, 02:19:04,VALID,1003.88,VALID,0,VALID,81.2781,VALID,0,VALID,26.5466,VALID,24,VALID,1.43164,
2012-01-05, 02:20:04,VALID,1003.84,VALID,0,VALID,81.2476,VALID,0,VALID,26.5271,VALID,8,VALID,2.08555,
2012-01-05, 02:21:04,VALID,1003.85,VALID,0,VALID,81.3391,VALID,0,VALID,26.5271,VALID,6,VALID,1.46953,
2012-01-05, 02:22:04,VALID,1003.87,VALID,0,VALID,81.3162,VALID,0,VALID,26.5486,VALID,1,VALID,2.14766,
2012-01-05, 02:23:04,VALID,1003.82,VALID,0,VALID,81.4307,VALID,0,VALID,26.5271,VALID,9,VALID,2.58437,
2012-01-05, 02:24:04,VALID,1003.82,VALID,0,VALID,81.629,VALID,0,VALID,26.5076,VALID,30,VALID,0.866797,
2012-01-05, 02:25:04,VALID,1003.8,VALID,0,VALID,81.7053,VALID,0,VALID,26.4901,VALID,32,VALID,1.4832,
2012-01-05, 02:26:04,VALID,1003.79,VALID,0,VALID,81.7663,VALID,0,VALID,26.4901,VALID,21,VALID,2.71758,
2012-01-05, 02:27:04,VALID,1003.8,VALID,0,VALID,81.5527,VALID,0,VALID,26.4687,VALID,15,VALID,2.51914,
2012-01-05, 02:28:04,VALID,1003.78,VALID,0,VALID,81.4841,VALID,0,VALID,26.5271,VALID,25,VALID,2.22344,
2012-01-05, 02:29:04,VALID,1003.82,VALID,0,VALID,81.3925,VALID,0,VALID,26.5661,VALID,24,VALID,1.96914,
2012-01-05, 02:30:04,VALID,1003.79,VALID,0,VALID,81.4383,VALID,0,VALID,26.5681,VALID,22,VALID,1.76133,
2012-01-05, 02:31:04,VALID,1003.79,VALID,0,VALID,81.6748,VALID,0,VALID,26.5291,VALID,12,VALID,1.67422,
2012-01-05, 02:32:04,VALID,1003.79,VALID,0,VALID,81.8197,VALID,0,VALID,26.4901,VALID,349,VALID,2.31172,
2012-01-05, 02:33:04,VALID,1003.79,VALID,0,VALID,81.7358,VALID,0,VALID,26.4901,VALID,12,VALID,2.52109,
2012-01-05, 02:34:04,VALID,1003.79,VALID,0,VALID,81.4307,VALID,0,VALID,26.5096,VALID,18,VALID,2.29297,
2012-01-05, 02:35:04,VALID,1003.79,VALID,0,VALID,81.629,VALID,0,VALID,26.5271,VALID,22,VALID,1.66836,
2012-01-05, 02:36:04,VALID,1003.77,VALID,0,VALID,81.7435,VALID,0,VALID,26.4687,VALID,22,VALID,1.72773,
2012-01-05, 02:37:04,VALID,1003.69,VALID,0,VALID,81.8655,VALID,0,VALID,26.4492,VALID,4,VALID,1.62969,
2012-01-05, 02:38:04,VALID,1003.7,VALID,0,VALID,82.1402,VALID,0,VALID,26.4297,VALID,14,VALID,0.74375,
2012-01-05, 02:39:04,VALID,1003.7,VALID,0,VALID,82.2851,VALID,0,VALID,26.3907,VALID,29,VALID,1.14375,
2012-01-05, 02:40:04,VALID,1003.67,VALID,0,VALID,82.4301,VALID,0,VALID,26.3927,VALID,22,VALID,0.900391,
2012-01-05, 02:41:04,VALID,1003.67,VALID,0,VALID,82.5597,VALID,0,VALID,26.3538,VALID,17,VALID,0.469531,
2012-01-05, 02:42:04,VALID,1003.67,VALID,0,VALID,82.7123,VALID,0,VALID,26.3128,VALID,24,VALID,1.6793,
2012-01-05, 02:43:04,VALID,1003.65,VALID,0,VALID,82.575,VALID,0,VALID,26.3343,VALID,45,VALID,2.21484,
2012-01-05, 02:44:04,VALID,1003.64,VALID,0,VALID,82.6589,VALID,0,VALID,26.3323,VALID,5,VALID,0.887109,
2012-01-05, 02:45:04,VALID,1003.63,VALID,0,VALID,82.7352,VALID,0,VALID,26.2933,VALID,23,VALID,0.869141,
2012-01-05, 02:46:04,VALID,1003.63,VALID,0,VALID,82.7962,VALID,0,VALID,26.2739,VALID,5,VALID,1.93203,
2012-01-05, 02:47:04,VALID,1003.63,VALID,0,VALID,82.9946,VALID,0,VALID,26.2933,VALID,19,VALID,0.967188,
2012-01-05, 02:48:04,VALID,1003.62,VALID,0,VALID,83.1167,VALID,0,VALID,26.2739,VALID,61,VALID,0.205469,
2012-01-05, 02:49:04,VALID,1003.63,VALID,0,VALID,83.2845,VALID,0,VALID,26.2154,VALID,51,VALID,0.6,
2012-01-05, 02:50:04,VALID,1003.6,VALID,0,VALID,83.4447,VALID,0,VALID,26.1979,VALID,17,VALID,0.191016,
2012-01-05, 02:51:04,VALID,1003.62,VALID,0,VALID,83.6507,VALID,0,VALID,26.157,VALID,357,VALID,0.835547,
2012-01-05, 02:52:04,VALID,1003.63,VALID,0,VALID,83.7727,VALID,0,VALID,26.118,VALID,16,VALID,0.533984,
2012-01-05, 02:53:04,VALID,1003.61,VALID,0,VALID,83.9177,VALID,0,VALID,26.12,VALID,25,VALID,0.441016,
2012-01-05, 02:54:04,VALID,1003.65,VALID,0,VALID,84.0169,VALID,0,VALID,26.081,VALID,72,VALID,0.730859,
2012-01-05, 02:55:04,VALID,1003.63,VALID,0,VALID,84.1847,VALID,0,VALID,26.0616,VALID,87,VALID,0.910937,
2012-01-05, 02:56:04,VALID,1003.68,VALID,0,VALID,84.3678,VALID,0,VALID,26.0012,VALID,51,VALID,0.557422,
2012-01-05, 02:57:04,VALID,1003.65,VALID,0,VALID,84.5356,VALID,0,VALID,25.9622,VALID,46,VALID,0.133594,
2012-01-05, 02:58:04,VALID,1003.7,VALID,0,VALID,84.6653,VALID,0,VALID,25.9447,VALID,61,VALID,0.632422,
2012-01-05, 02:59:04,VALID,1003.7,VALID,0,VALID,84.8942,VALID,0,VALID,25.9038,VALID,68,VALID,0.476563,
2012-01-05, 03:00:04,VALID,1003.72,VALID,0,VALID,85.0086,VALID,0,VALID,25.8629,VALID,75,VALID,0.744922,
2012-01-05, 03:01:04,VALID,1003.7,VALID,0,VALID,85.2299,VALID,0,VALID,25.8453,VALID,76,VALID,0.521094,
2012-01-05, 03:02:04,VALID,1003.69,VALID,0,VALID,85.3138,VALID,0,VALID,25.8259,VALID,86,VALID,1.06055,
2012-01-05, 03:03:04,VALID,1003.66,VALID,0,VALID,85.3824,VALID,0,VALID,25.8064,VALID,88,VALID,0.414063,
2012-01-05, 03:04:04,VALID,1003.69,VALID,0,VALID,85.5655,VALID,0,VALID,25.748,VALID,70,VALID,0.844922,
2012-01-05, 03:05:04,VALID,1003.68,VALID,0,VALID,85.7639,VALID,0,VALID,25.7499,VALID,78,VALID,0.574219,
2012-01-05, 03:06:04,VALID,1003.67,VALID,0,VALID,85.8707,VALID,0,VALID,25.6895,VALID,87,VALID,0.902344,
2012-01-05, 03:07:04,VALID,1003.69,VALID,0,VALID,86.008,VALID,0,VALID,25.6506,VALID,96,VALID,0.854297,
2012-01-05, 03:08:04,VALID,1003.72,VALID,0,VALID,86.1835,VALID,0,VALID,25.6506,VALID,98,VALID,0.431641,
2012-01-05, 03:09:04,VALID,1003.7,VALID,0,VALID,86.3055,VALID,0,VALID,25.6116,VALID,103,VALID,0.753906,
2012-01-05, 03:10:04,VALID,1003.74,VALID,0,VALID,86.3971,VALID,0,VALID,25.6116,VALID,103,VALID,0.592969,
2012-01-05, 03:11:04,VALID,1003.8,VALID,0,VALID,86.42,VALID,0,VALID,25.6136,VALID,151,VALID,1.47891,
2012-01-05, 03:12:04,VALID,1003.82,VALID,0,VALID,86.3437,VALID,0,VALID,25.6116,VALID,120,VALID,0.889453,
2012-01-05, 03:13:04,VALID,1003.82,VALID,0,VALID,86.4352,VALID,0,VALID,25.6116,VALID,148,VALID,1.17734,
2012-01-05, 03:14:04,VALID,1003.8,VALID,0,VALID,86.4276,VALID,0,VALID,25.5727,VALID,160,VALID,1.48359,
2012-01-05, 03:15:04,VALID,1003.82,VALID,0,VALID,86.4657,VALID,0,VALID,25.5727,VALID,123,VALID,1.60273,
2012-01-05, 03:16:04,VALID,1003.82,VALID,0,VALID,86.5344,VALID,0,VALID,25.5921,VALID,151,VALID,0.878906,
2012-01-05, 03:17:04,VALID,1003.82,VALID,0,VALID,86.7709,VALID,0,VALID,25.5727,VALID,124,VALID,0.941797,
2012-01-05, 03:18:04,VALID,1003.82,VALID,0,VALID,87.0837,VALID,0,VALID,25.5318,VALID,125,VALID,1.83398,
2012-01-05, 03:19:04,VALID,1003.86,VALID,0,VALID,87.1676,VALID,0,VALID,25.5727,VALID,137,VALID,1.14258,
2012-01-05, 03:20:04,VALID,1003.86,VALID,0,VALID,87.2057,VALID,0,VALID,25.5123,VALID,118,VALID,0.617188,
2012-01-05, 03:21:04,VALID,1003.9,VALID,0,VALID,87.2362,VALID,0,VALID,25.4928,VALID,63,VALID,0.864062,
2012-01-05, 03:22:04,VALID,1003.93,VALID,0,VALID,87.2973,VALID,0,VALID,25.4948,VALID,99,VALID,0.815625,
2012-01-05, 03:23:04,VALID,1003.95,VALID,0,VALID,87.5033,VALID,0,VALID,25.4753,VALID,86,VALID,0.683984,
2012-01-05, 03:24:04,VALID,1003.98,VALID,0,VALID,87.7626,VALID,0,VALID,25.4558,VALID,103,VALID,1.3793,
2012-01-05, 03:25:04,VALID,1004,VALID,0,VALID,87.9,VALID,0,VALID,25.4558,VALID,110,VALID,0.993359,
2012-01-05, 03:26:04,VALID,1004.04,VALID,0,VALID,88.0754,VALID,0,VALID,25.4169,VALID,82,VALID,0.978906,
2012-01-05, 03:27:04,VALID,1004.04,VALID,0,VALID,88.2204,VALID,0,VALID,25.4344,VALID,106,VALID,1.5793,
2012-01-05, 03:28:04,VALID,1004.05,VALID,0,VALID,88.2433,VALID,0,VALID,25.4558,VALID,128,VALID,0.90625,
2012-01-05, 03:29:04,VALID,1004.07,VALID,0,VALID,88.2661,VALID,0,VALID,25.4577,VALID,108,VALID,1.19219,
2012-01-05, 03:30:04,VALID,1004.08,VALID,0,VALID,88.3348,VALID,0,VALID,25.4363,VALID,113,VALID,1.15156,
2012-01-05, 03:31:04,VALID,1004.07,VALID,0,VALID,88.4798,VALID,0,VALID,25.4363,VALID,109,VALID,1.44531,
2012-01-05, 03:32:04,VALID,1004.12,VALID,0,VALID,88.4035,VALID,0,VALID,25.4169,VALID,117,VALID,2.34922,
2012-01-05, 03:33:04,VALID,1004.14,VALID,0,VALID,88.3119,VALID,0,VALID,25.4344,VALID,124,VALID,2.38281,
2012-01-05, 03:34:04,VALID,1004.14,VALID,0,VALID,88.3501,VALID,0,VALID,25.4558,VALID,136,VALID,1.32617,
2012-01-05, 03:35:04,VALID,1004.17,VALID,0,VALID,88.434,VALID,0,VALID,25.4558,VALID,139,VALID,2.37383,
2012-01-05, 03:36:04,VALID,1004.21,VALID,0,VALID,88.5408,VALID,0,VALID,25.4558,VALID,154,VALID,1.74961,
2012-01-05, 03:37:04,VALID,1004.21,VALID,0,VALID,88.6476,VALID,0,VALID,25.4363,VALID,127,VALID,1.54375,
2012-01-05, 03:38:04,VALID,1004.21,VALID,0,VALID,88.7697,VALID,0,VALID,25.4169,VALID,135,VALID,1.71172,
2012-01-05, 03:39:04,VALID,1004.18,VALID,0,VALID,88.8688,VALID,0,VALID,25.4169,VALID,100,VALID,2.06172,
2012-01-05, 03:40:04,VALID,1004.19,VALID,0,VALID,88.8459,VALID,0,VALID,25.4169,VALID,131,VALID,2.61406,
2012-01-05, 03:41:04,VALID,1004.21,VALID,0,VALID,89.0672,VALID,0,VALID,25.3974,VALID,140,VALID,1.24375,
2012-01-05, 03:42:04,VALID,1004.19,VALID,0,VALID,88.7773,VALID,0,VALID,25.3798,VALID,135,VALID,2.125,
2012-01-05, 03:43:04,VALID,1004.19,VALID,0,VALID,88.8688,VALID,0,VALID,25.3584,VALID,127,VALID,2.33437,
2012-01-05, 03:44:04,VALID,1004.21,VALID,0,VALID,89.0367,VALID,0,VALID,25.339,VALID,127,VALID,1.35703,
2012-01-05, 03:45:04,VALID,1004.21,VALID,0,VALID,88.8841,VALID,0,VALID,25.339,VALID,144,VALID,1.69023,
2012-01-05, 03:46:04,VALID,1004.23,VALID,0,VALID,89.0748,VALID,0,VALID,25.339,VALID,123,VALID,1.6875,
2012-01-05, 03:47:04,VALID,1004.25,VALID,0,VALID,88.6552,VALID,0,VALID,25.339,VALID,115,VALID,2.2668,
2012-01-05, 03:48:04,VALID,1004.25,VALID,0,VALID,88.8078,VALID,0,VALID,25.3195,VALID,126,VALID,1.59141,